Wind_Speed
76 74 73 72 71 71 71 70 70 69 69 68 68 68 67 67 67 67 67 66 66 66 66 66 67 67 68 69 70 70 71 72 73 73 74 75 76 77 78 79 80 81 83 84 85 86 87 88 89 90 91 92 93 94 95 96 97 98 99 101 101 102 103 104 104 105 106 107 108 109 109 110 110 109 109 109 109 110 111 111 112 112 112 112 112 112
76 75 74 73 72 72 72 71 70 70 69 69 68 68 68 68 68 67 67 67 66 66 67 67 67 68 69 70 70 71 72 72 73 74 75 76 77 78 79 80 81 82 83 84 85 86 87 88 89 90 91 92 93 94 95 96 97 98 99 100 101 101 102 103 103 104 105 106 106 107 108 108 107 107 106 107 107 108 109 110 110 110 110 110 110 110
77 76 75 74 73 72 72 72 71 70 70 69 69 69 68 68 68 68 68 68 67 67 67 68 68 69 70 70 71 72 72 73 74 75 76 77 78 79 80 81 82 83 84 85 86 86 87 88 89 90 91 92 93 94 95 96 97 98 99 99 100 100 100 101 101 102 103 103 104 104 105 104 104 103 103 103 104 105 106 107 107 108 108 108 108 108
78 77 76 74 74 73 73 73 72 71 71 70 69 69 69 69 69 69 68 68 68 68 68 69 69 70 71 71 72 73 73 74 75 76 77 78 79 80 81 82 83 83 84 85 86 87 88 88 89 90 91 92 93 94 95 96 97 97 98 98 98 98 98 98 98 99 99 99 100 100 99 99 98 98 98 98 99 100 102 103 104 105 105 105 105 105
78 77 76 75 75 74 74 74 73 72 72 71 70 70 70 69 69 69 69 69 69 69 70 70 70 71 72 72 73 73 74 74 75 76 77 78 79 80 81 82 83 84 85 85 86 87 88 88 89 90 91 92 93 94 95 96 96 96 96 96 95 95 95 95 95 94 94 94 94 93 93 92 92 91 92 93 94 95 97 98 100 101 102 102 102 102
79 78 77 76 75 75 75 74 74 73 72 72 71 70 70 70 70 70 70 70 70 70 71 71 72 72 73 73 74 74 75 75 76 77 78 79 80 81 82 83 84 84 85 86 86 87 87 88 89 90 91 92 93 94 95 95 95 95 94 93 93 92 92 92 91 90 90 89 88 88 87 86 85 85 86 87 88 90 92 94 96 97 98 99 99 99
79 78 77 76 76 75 75 75 75 74 73 72 72 71 71 71 71 70 70 71 71 71 72 72 72 73 74 74 75 75 75 76 77 78 79 80 81 82 82 83 84 85 85 86 86 87 87 88 89 90 91 92 93 94 95 95 94 94 93 92 91 90 89 89 88 87 86 85 84 83 82 81 80 79 80 82 84 86 88 90 92 94 95 96 96 95
79 78 77 77 76 76 76 76 75 75 74 73 72 72 72 72 71 71 71 71 72 72 72 73 73 74 75 75 75 75 76 76 77 78 79 80 81 82 83 84 84 85 85 86 86 87 88 88 89 90 92 93 94 95 95 94 93 92 91 90 89 88 86 85 84 83 83 82 81 79 78 76 75 75 76 77 79 82 84 86 88 90 92 92 92 90
79 79 78 77 77 76 77 77 76 75 74 73 73 73 73 73 72 72 72 72 73 73 73 73 74 75 75 76 76 76 76 76 77 78 79 81 82 83 83 84 84 85 85 86 86 87 88 89 90 91 92 94 95 95 94 93 92 90 89 88 86 85 83 82 80 80 80 79 78 77 75 73 72 71 72 73 76 78 81 83 85 87 88 88 87 85
78 78 78 77 77 76 77 77 77 76 75 74 73 73 73 73 73 73 73 73 73 74 73 74 74 75 76 76 76 76 76 77 77 78 80 81 82 83 83 84 84 84 85 85 86 87 88 89 90 92 93 94 95 94 93 92 90 88 87 85 83 82 80 78 77 77 77 76 75 74 72 70 69 68 68 70 72 75 78 80 82 84 84 83 82 80
78 78 78 77 77 77 77 77 77 76 75 75 74 74 74 73 73 73 74 74 74 74 74 74 75 75 76 77 77 77 77 77 78 79 80 81 82 83 83 83 84 84 84 85 86 87 88 89 91 92 93 94 94 93 92 89 87 86 84 83 81 79 77 76 74 74 74 73 72 71 69 67 66 65 66 67 69 72 75 77 79 80 80 78 76 74
78 78 78 77 77 77 77 77 77 76 76 75 75 75 74 74 73 73 74 74 74 74 75 75 75 76 77 77 77 77 77 77 78 79 80 82 83 83 83 83 83 83 84 85 86 87 88 90 91 92 93 94 93 91 89 87 85 84 82 80 79 77 75 73 72 71 70 70 69 68 66 65 64 63 63 65 67 69 72 74 75 76 75 73 71 69
77 77 77 77 77 77 78 78 77 77 76 76 76 76 75 75 74 74 74 74 74 74 74 75 76 77 77 77 77 77 77 77 78 79 81 82 83 83 83 83 83 83 84 85 86 87 88 90 91 92 93 92 91 89 87 84 82 81 80 78 76 74 72 71 69 68 67 67 66 65 63 62 61 61 61 62 64 67 69 70 71 71 69 67 65 64
77 77 77 77 77 77 78 78 77 77 77 76 76 76 75 75 75 74 74 74 74 74 74 75 76 77 77 78 78 77 77 77 78 79 80 82 83 83 83 82 82 83 84 85 86 87 88 89 90 91 91 90 89 86 83 81 79 78 77 76 74 72 70 68 66 65 64 64 63 62 60 59 59 59 59 60 62 64 65 67 67 66 64 63 61 61
77 77 77 77 78 78 78 77 77 77 77 76 76 76 76 76 75 75 75 74 74 73 73 74 75 76 77 78 78 77 77 77 77 78 80 81 82 83 82 82 81 82 83 84 86 87 87 89 89 90 89 88 86 83 80 78 77 75 74 73 71 69 67 65 64 63 62 61 60 59 58 57 57 57 57 58 59 60 62 62 62 62 60 59 59 59
76 76 77 77 78 78 78 77 77 77 77 77 76 76 76 76 76 75 75 74 73 73 73 74 74 76 77 78 78 77 77 76 77 77 79 81 82 82 82 81 81 82 83 84 85 86 87 88 88 88 87 85 82 80 77 75 74 73 71 70 68 67 65 63 61 60 59 58 57 56 55 55 55 55 55 56 56 57 58 59 59 58 57 57 57 57
76 76 77 77 77 78 78 77 77 77 77 77 76 76 76 76 76 76 75 74 73 73 73 73 74 75 77 78 78 77 76 76 76 77 78 80 82 82 81 80 80 81 83 84 85 86 86 86 86 85 84 82 79 77 74 73 72 70 69 67 66 64 62 61 59 57 56 55 54 54 53 53 53 53 53 53 54 54 55 55 55 55 55 55 56 56
76 76 76 77 77 78 78 77 77 77 77 77 76 76 76 76 76 76 75 74 73 72 72 73 74 75 76 77 78 77 76 76 76 76 78 80 81 82 81 80 80 81 83 84 85 85 85 85 84 82 80 78 76 74 72 71 70 68 66 65 63 61 60 58 57 55 54 52 52 51 51 50 50 50 50 51 51 52 52 52 53 53 53 54 55 56
76 76 76 77 77 77 77 77 77 77 77 76 76 77 77 77 76 76 75 73 72 72 72 73 73 74 75 76 77 77 76 75 75 76 77 79 81 81 80 79 80 81 82 84 84 84 84 83 81 79 77 75 73 71 69 68 67 66 64 62 61 59 57 56 54 53 51 50 49 49 48 48 48 48 48 48 49 49 50 50 51 51 52 53 54 55
76 75 76 76 77 77 77 77 77 77 77 76 76 76 77 77 77 76 75 73 72 72 72 72 73 74 75 76 76 76 76 75 75 75 76 78 80 80 79 79 79 81 82 83 84 83 82 81 78 76 74 72 69 68 66 66 65 63 62 60 58 57 55 53 52 50 49 48 47 46 46 46 46 46 46 46 46 47 47 48 49 50 51 52 53 54
75 75 75 76 76 77 77 77 77 76 76 76 76 76 76 77 77 76 75 73 72 71 71 72 73 74 74 75 76 76 75 75 74 74 75 77 79 79 79 78 79 80 82 83 83 82 80 78 75 73 71 68 66 64 63 63 62 61 59 57 56 54 53 51 49 48 46 45 45 44 44 44 44 44 44 44 44 45 46 47 48 49 50 51 53 54
74 75 75 75 76 76 77 77 76 76 76 76 76 76 76 76 76 76 74 73 72 71 71 72 73 74 74 75 76 76 75 74 73 73 74 76 78 78 78 77 78 80 81 82 82 80 78 75 72 70 68 65 63 61 61 60 59 58 56 55 53 52 50 49 47 45 44 43 42 42 42 41 41 41 42 42 43 43 44 46 47 48 50 51 52 53
73 74 74 75 75 75 76 76 76 76 76 75 75 75 75 75 76 75 74 73 71 71 71 72 73 74 74 75 76 76 75 74 72 72 73 75 77 77 77 77 77 79 80 81 80 79 76 73 69 67 64 62 60 59 58 57 56 55 53 52 50 49 48 46 45 43 42 41 40 40 39 39 39 40 40 41 41 42 43 45 46 48 49 50 51 52
73 73 74 75 75 75 75 75 75 75 75 75 75 75 74 74 75 74 73 72 71 71 71 72 73 74 74 75 75 75 74 73 72 71 72 74 75 76 76 76 77 78 79 79 79 77 74 70 66 63 61 59 58 56 55 54 53 52 50 49 48 47 45 44 42 41 40 39 38 38 37 37 38 38 39 39 40 41 43 44 46 47 48 49 50 51
72 73 74 75 75 75 75 75 75 75 75 75 74 74 74 74 74 73 72 71 70 70 70 71 72 73 74 75 75 75 74 73 71 71 72 73 75 75 76 75 76 76 77 78 77 75 72 68 63 60 58 56 55 53 53 52 51 49 47 46 45 44 43 42 40 39 37 37 36 36 36 36 36 37 37 38 39 41 42 43 45 46 47 48 49 50
72 73 74 74 75 74 74 75 74 74 74 74 74 74 73 73 73 73 72 71 70 70 70 71 72 73 73 74 75 75 74 73 71 71 71 72 74 75 75 74 74 75 75 76 75 74 70 65 61 57 55 54 52 51 50 50 48 47 45 44 43 42 41 39 38 36 35 34 34 34 34 34 35 36 36 37 39 40 41 42 44 45 46 47 48 50
71 72 73 74 74 74 74 74 74 74 74 74 74 73 73 73 73 73 71 70 69 69 70 71 71 72 73 73 74 74 73 72 71 70 70 72 73 74 74 74 73 73 73 74 74 72 69 64 59 55 53 52 50 49 48 47 46 45 43 41 40 39 38 37 36 34 33 33 32 32 33 33 34 35 36 37 38 40 41 42 42 43 44 46 47 49
70 71 72 72 73 73 73 74 73 73 74 73 73 72 72 72 72 72 70 69 68 69 69 70 71 71 72 72 73 73 73 72 71 70 70 71 73 74 73 73 72 71 71 71 71 70 67 62 58 54 51 49 48 47 46 45 44 43 41 40 38 37 36 35 34 32 31 31 31 31 32 32 33 34 35 36 38 39 40 41 42 43 44 45 47 49
69 70 71 71 72 72 72 73 73 73 73 73 72 72 71 71 71 71 69 68 68 69 69 69 70 70 70 71 71 72 72 71 70 69 69 71 72 73 73 72 71 70 69 69 69 67 65 61 57 53 50 47 46 45 44 43 42 41 39 38 37 35 34 33 31 30 30 30 30 30 31 31 32 33 35 36 37 38 39 40 41 43 44 46 47 49
69 69 70 70 71 71 71 71 72 72 72 72 72 71 71 70 70 69 68 67 68 68 69 69 69 69 69 69 70 71 71 70 69 68 69 70 72 72 72 71 70 68 67 67 66 65 63 60 56 52 49 46 45 43 42 41 40 39 38 37 35 34 32 31 29 29 28 28 29 29 30 31 32 33 34 35 36 37 38 40 41 43 44 46 48 49
69 69 69 70 70 70 70 70 70 71 71 71 71 70 70 69 69 68 67 67 67 68 68 68 68 68 68 68 69 69 70 70 69 68 68 70 71 72 71 71 69 67 65 64 64 63 61 58 55 52 49 46 44 42 40 39 38 37 36 35 34 32 30 29 28 27 27 28 28 28 29 30 31 32 34 35 36 37 38 39 41 43 44 46 48 50
68 68 69 69 69 70 70 69 70 70 70 70 70 70 69 68 67 67 66 67 67 67 67 67 67 67 67 67 67 68 68 68 68 68 68 70 70 71 70 70 68 66 64 62 61 60 59 57 54 51 48 46 43 41 39 38 37 36 35 34 32 30 29 27 26 26 26 27 27 28 28 29 30 32 33 34 35 37 38 39 41 43 45 47 49 51
67 68 68 68 69 69 69 69 69 69 69 69 69 69 68 67 66 66 66 66 66 66 66 66 66 66 66 66 66 66 67 67 67 67 68 69 70 70 69 68 67 65 63 61 59 57 56 54 52 49 47 44 42 40 38 36 35 34 33 32 30 29 27 26 25 25 26 26 26 26 27 28 30 31 33 34 35 37 38 39 41 43 45 48 50 52
67 67 67 67 68 68 68 68 68 68 69 68 68 68 67 66 66 65 66 66 66 66 66 65 65 65 65 65 65 65 66 66 66 66 67 68 69 69 69 67 66 63 61 59 57 56 54 52 50 47 45 42 40 39 37 35 34 33 32 31 29 27 25 24 24 25 25 25 25 25 26 28 29 31 33 34 35 36 38 40 42 44 46 49 51 54
66 66 67 67 67 67 67 67 67 68 68 68 67 66 66 65 65 65 65 65 65 65 65 64 64 64 64 64 64 65 65 65 66 66 67 67 68 68 68 66 64 62 60 57 56 54 53 51 48 46 43 41 38 37 35 34 33 32 31 29 27 26 24 23 23 24 24 24 24 24 26 27 29 31 32 34 35 37 38 40 43 45 48 50 53 55
65 66 66 66 66 66 66 66 67 67 67 66 66 65 65 64 64 65 65 65 65 65 64 64 63 63 63 63 63 63 64 64 65 66 66 67 67 67 67 65 63 60 58 56 54 53 51 49 47 45 42 40 37 35 33 32 31 30 29 28 26 24 23 22 23 24 24 23 23 24 25 27 29 30 32 34 35 37 39 41 44 46 49 52 54 56
65 65 65 65 65 65 65 66 66 66 66 65 65 64 64 64 64 64 64 64 64 64 64 63 63 62 62 62 62 62 62 63 64 65 66 66 66 66 66 64 61 59 57 54 52 51 49 48 45 43 41 38 36 33 31 30 30 29 28 26 25 23 22 22 23 23 23 23 23 23 25 26 29 30 32 34 36 38 40 42 45 48 50 53 55 56
64 64 64 64 64 64 65 65 65 65 65 64 64 63 63 63 63 63 64 64 64 63 63 62 62 62 62 62 61 61 61 62 63 64 65 65 65 65 64 63 60 57 55 53 51 49 48 46 44 42 39 37 34 32 30 29 28 28 27 25 23 22 21 21 22 23 22 22 22 23 25 27 29 31 33 34 36 39 41 44 46 49 51 54 55 57
63 63 63 63 63 64 64 64 64 64 63 63 62 62 62 62 63 63 63 63 63 63 62 62 61 61 61 61 61 61 61 62 62 63 64 64 64 64 63 61 59 56 53 51 50 48 46 44 42 40 38 35 33 30 28 27 27 26 26 24 22 21 20 21 22 22 22 22 22 23 25 27 29 31 33 35 37 40 42 45 47 50 52 54 56 58
62 62 62 62 62 63 63 64 63 63 62 62 61 61 62 62 62 62 62 62 62 61 61 61 60 61 61 61 61 60 61 61 62 62 63 63 63 62 61 59 57 54 51 50 48 47 45 43 40 38 36 34 31 29 27 26 26 25 25 23 21 20 20 21 22 22 21 22 22 23 25 27 29 32 34 36 38 40 43 46 48 51 53 55 57 59
61 61 61 61 61 62 62 62 62 62 61 61 61 61 61 61 61 61 61 61 61 60 60 60 59 60 60 60 60 60 61 61 61 62 62 62 61 60 59 57 55 52 50 48 47 45 44 42 39 36 33 31 29 28 26 25 24 24 24 22 20 19 19 20 21 21 21 22 23 24 26 28 30 32 34 37 39 41 44 46 49 51 53 55 57 59
60 60 60 60 61 61 61 61 61 60 60 60 60 60 60 60 60 60 60 60 60 60 59 59 59 59 59 60 60 60 61 61 61 61 61 60 60 59 57 55 53 50 47 46 45 44 43 41 38 35 32 30 28 26 24 23 23 23 23 21 19 19 19 20 21 21 21 22 23 24 26 28 31 33 35 38 40 42 45 47 50 52 54 56 57 59
59 60 60 60 60 60 60 60 59 59 59 59 59 59 59 59 59 59 60 60 59 59 58 58 58 58 58 59 60 60 61 61 61 61 60 59 58 57 55 53 51 48 46 44 43 42 41 40 37 34 31 28 26 24 23 22 22 22 22 20 19 18 19 20 21 21 21 22 23 25 27 29 31 34 36 39 41 43 46 48 50 52 54 56 58 59
59 59 59 59 59 59 59 58 58 58 58 58 58 59 58 58 58 58 58 58 58 58 57 57 57 57 58 58 59 60 61 61 61 60 59 58 57 55 53 51 49 46 44 42 42 41 40 38 36 33 30 26 24 22 21 21 21 21 21 19 18 18 19 20 21 21 22 22 23 25 27 29 32 34 37 39 42 44 46 49 51 52 54 56 58 60
58 58 58 58 58 57 57 57 57 57 57 57 58 58 57 57 57 57 57 57 57 56 56 56 56 56 57 58 59 60 61 61 61 60 59 57 55 53 51 50 47 45 43 41 40 39 38 37 35 32 29 25 23 21 20 20 20 21 20 19 18 17 18 20 21 22 22 23 24 25 27 30 32 35 38 40 42 45 47 49 51 53 55 56 58 60
57 58 57 57 56 56 56 56 56 56 57 57 57 57 57 57 56 56 56 56 55 55 55 55 55 55 56 57 58 59 60 61 61 60 59 57 54 52 50 48 46 43 42 40 38 37 36 35 33 31 28 25 21 19 18 19 19 20 20 18 17 17 18 20 21 22 22 23 24 26 28 31 33 36 38 41 43 45 47 50 52 53 55 57 58 60
56 56 56 56 55 55 55 55 55 55 56 56 56 56 56 56 55 55 55 54 54 54 54 54 54 55 55 57 58 59 60 61 61 60 59 56 54 52 49 47 44 42 40 39 37 35 34 33 31 29 27 24 20 18 17 17 18 19 19 18 17 17 18 20 22 22 23 24 25 27 29 31 33 36 38 41 43 46 48 50 52 54 55 57 59 60
55 55 55 54 54 54 54 54 54 54 54 55 55 55 55 55 54 54 54 53 53 53 53 53 53 54 55 56 57 58 59 59 59 59 57 55 54 51 49 46 44 42 40 38 36 34 32 31 29 28 25 23 20 17 16 16 17 18 19 17 16 16 18 20 22 23 24 25 26 28 29 32 34 36 39 41 44 46 48 50 52 54 56 57 59 61
54 54 54 53 53 53 53 53 53 53 53 54 54 54 54 53 53 53 52 52 52 52 52 52 53 54 55 56 57 58 58 58 58 57 55 54 52 50 48 46 43 41 39 37 35 33 31 29 27 26 24 22 19 16 15 15 17 18 18 17 16 17 18 21 22 24 24 25 27 28 30 32 34 37 39 42 44 47 49 51 53 55 56 58 60 61
53 53 53 52 52 52 52 52 52 52 52 53 53 53 53 53 52 52 51 51 51 51 51 52 53 54 55 56 57 57 58 57 56 55 53 51 50 49 47 45 43 41 39 37 35 32 30 27 25 23 22 20 18 16 14 15 16 17 18 17 17 17 18 21 23 24 25 26 27 29 31 33 35 37 40 42 45 47 49 51 53 55 57 59 60 62
52 52 52 52 52 51 51 51 51 51 51 52 52 52 52 52 51 50 50 50 50 50 50 51 52 53 55 56 57 57 57 56 55 53 51 49 48 47 45 44 42 40 39 37 35 32 29 26 24 21 20 19 17 15 14 14 15 17 18 17 17 17 19 21 24 25 26 27 28 30 31 34 36 38 41 43 46 48 50 52 54 56 58 60 61 63
Wind_Direction
301 300 300 299 299 298 298 297 297 296 296 295 294 293 292 291 290 290 289 288 288 288 288 288 288 288 288 288 288 288 288 288 287 287 286 286 285 285 285 284 284 283 283 283 282 282 281 281 281 280 280 279 278 278 277 276 275 274 273 273 272 271 271 270 270 269 269 268 267 267 266 265 264 264 263 262 262 261 260 259 258 257 256 255 254 252
301 300 300 299 299 298 298 297 297 296 296 295 295 294 293 292 292 291 290 290 290 290 290 290 290 290 290 290 290 290 289 289 289 289 288 288 287 287 286 286 285 285 284 284 284 283 283 282 282 281 281 280 279 279 278 277 276 275 274 273 273 272 272 271 271 270 270 269 268 267 266 266 265 264 263 263 262 261 260 259 258 257 256 255 254 253
301 300 300 299 299 298 298 297 297 297 297 296 295 295 294 294 293 293 292 292 292 292 292 292 292 292 292 292 292 291 291 291 290 290 290 289 289 288 288 287 287 286 286 286 285 285 284 284 283 283 282 281 280 279 278 277 277 276 275 274 274 273 273 273 272 271 271 270 269 268 267 266 265 264 263 262 261 260 259 259 258 257 256 255 254 253
300 300 300 300 299 299 298 298 298 297 297 297 296 296 295 295 294 294 294 294 294 294 294 294 294 294 293 293 293 293 292 292 292 292 291 291 290 290 289 289 288 288 288 287 287 286 286 285 285 284 283 282 281 280 279 278 278 277 277 276 276 275 275 274 273 272 271 270 269 268 267 266 265 263 262 261 260 259 258 257 257 256 255 254 253 252
300 300 300 300 299 299 298 298 298 298 298 297 297 297 296 296 295 295 295 295 295 295 295 295 295 295 294 294 294 294 294 293 293 293 293 292 291 291 291 290 290 289 289 289 288 288 287 286 286 285 284 283 282 281 281 280 279 279 279 278 278 278 277 276 275 274 272 271 269 268 267 265 264 263 261 260 259 258 257 256 255 255 254 253 253 251
300 300 300 300 299 299 298 298 298 298 298 298 297 297 297 297 296 296 296 296 296 296 296 296 295 295 295 295 295 295 295 294 294 294 294 293 293 292 292 291 291 291 290 290 289 289 288 287 287 286 285 285 284 284 283 282 282 282 282 282 281 280 279 278 277 275 274 272 271 269 267 266 264 262 261 259 258 256 255 254 254 253 253 252 252 251
299 299 299 299 299 299 298 298 298 298 298 298 298 298 298 297 297 297 297 297 297 296 296 296 296 296 296 295 295 295 295 295 295 295 294 294 294 293 293 293 292 292 292 291 291 290 290 289 289 288 287 287 286 286 285 285 285 285 284 284 283 282 281 280 278 277 275 274 272 270 268 266 264 262 260 259 257 255 254 253 252 252 252 251 251 251
299 299 299 299 299 299 298 298 298 298 298 298 298 298 298 298 298 298 297 297 297 297 297 297 296 296 296 296 296 296 296 296 296 296 295 295 294 294 294 294 294 293 293 293 293 292 292 291 291 290 290 289 288 288 287 287 287 287 286 285 284 283 281 280 279 278 276 275 273 271 269 267 265 262 260 258 256 255 253 252 251 251 251 251 251 250
299 299 299 299 299 298 298 297 297 297 298 298 298 298 298 298 298 298 298 298 297 297 297 297 297 297 297 296 297 297 297 297 296 296 296 296 295 295 295 295 295 295 295 294 294 294 293 293 292 292 291 291 290 289 289 289 289 288 287 286 285 283 282 281 279 278 277 275 274 272 270 268 265 263 260 258 256 254 252 251 251 251 251 251 251 251
298 298 298 298 298 298 297 297 297 297 298 298 298 298 298 298 298 299 298 298 298 298 297 297 297 297 297 297 297 297 297 297 297 297 297 296 296 296 296 296 296 296 296 295 295 295 294 294 293 293 292 292 291 291 291 291 290 290 288 287 285 284 282 281 280 278 277 275 274 272 271 268 266 263 260 257 255 253 252 251 251 251 251 251 251 250
297 298 298 298 297 297 297 297 297 297 298 298 298 298 298 298 298 299 299 298 298 298 298 298 297 297 297 297 297 298 298 298 298 298 297 297 297 297 297 297 297 297 297 296 296 296 295 295 295 294 294 293 293 292 292 292 291 290 289 287 286 284 283 281 280 278 277 275 274 272 271 269 266 263 260 257 254 253 251 251 251 251 251 251 251 250
297 297 297 297 297 297 296 296 296 297 297 298 298 298 298 298 298 298 298 298 298 298 298 298 298 298 298 298 298 298 298 298 299 298 298 298 297 297 297 298 298 298 298 297 297 297 296 296 296 295 295 294 294 294 293 293 292 291 289 288 286 285 283 282 280 278 277 275 274 273 271 268 266 263 259 256 254 252 251 251 251 251 251 251 250 249
296 296 296 296 296 296 296 296 296 297 297 297 298 298 298 298 298 298 298 298 298 298 298 298 298 298 298 298 298 298 299 299 299 299 299 298 298 298 298 299 299 299 299 298 298 297 297 297 297 296 296 295 295 294 294 293 292 291 289 288 286 285 283 282 280 278 277 275 274 272 270 268 265 262 259 256 254 252 251 251 251 251 251 251 249 248
296 296 296 296 296 296 295 296 296 296 297 297 297 297 298 298 298 298 297 297 298 298 298 298 298 298 298 298 298 298 299 299 299 299 299 299 299 299 299 299 299 299 299 299 298 298 298 298 297 297 296 296 295 295 294 293 292 290 289 288 286 285 283 282 280 278 277 275 274 272 270 268 265 262 259 256 254 253 252 251 251 251 250 249 247 245
295 295 296 295 295 295 295 295 296 296 296 297 297 297 298 298 298 297 298 298 298 298 298 298 298 298 298 298 298 299 299 299 299 299 299 299 299 299 299 300 300 300 299 299 299 298 298 298 298 297 297 296 296 295 295 293 292 290 289 288 286 285 284 282 280 279 277 275 274 272 270 267 265 262 259 256 254 253 251 251 250 249 248 247 245 242
295 295 295 295 295 295 295 295 295 296 296 296 297 297 297 297 297 297 298 298 298 298 298 298 298 298 298 298 298 299 299 299 300 300 300 300 300 300 300 300 301 300 300 300 299 299 299 299 298 298 297 297 296 296 295 293 292 290 289 288 286 285 284 282 281 279 277 275 274 271 269 267 264 261 259 256 254 252 251 250 249 248 246 244 242 239
294 294 294 294 294 294 294 295 295 295 296 296 297 297 297 297 297 298 298 298 298 298 298 298 298 298 298 298 298 299 299 300 300 301 301 301 300 300 300 301 301 301 301 301 300 300 300 299 299 298 298 297 297 296 295 293 292 290 289 288 287 286 284 283 281 279 277 275 273 271 269 266 263 261 258 256 253 251 250 248 247 245 243 241 239 236
293 294 294 294 294 294 294 295 295 295 296 296 296 297 297 297 297 297 298 298 299 299 299 298 298 298 298 298 298 299 300 300 301 301 301 301 301 301 301 302 302 302 302 302 301 301 301 300 299 299 298 298 297 296 295 294 292 291 289 288 287 286 284 283 281 279 277 275 273 270 268 265 262 260 257 255 252 250 248 246 244 242 240 238 236 233
293 293 293 293 293 293 294 294 294 295 295 296 296 297 297 297 297 298 298 299 299 299 299 299 298 298 298 298 299 299 300 301 301 302 302 302 301 301 302 302 303 303 303 302 302 302 301 300 300 299 299 298 297 296 295 294 292 291 290 289 287 286 284 283 281 279 277 275 272 270 267 264 261 259 256 253 251 248 246 244 241 239 237 235 233 231
292 292 292 293 293 293 293 294 294 295 295 296 296 297 297 297 297 298 298 299 299 299 299 299 299 298 298 299 299 300 300 301 302 303 303 303 302 302 302 303 304 304 304 303 303 302 302 301 300 300 299 298 297 296 295 293 292 291 290 289 288 286 285 283 281 279 277 274 272 269 266 263 260 257 254 252 249 246 244 241 239 236 234 232 230 228
292 292 292 292 292 293 293 293 294 295 295 296 296 296 297 297 297 298 298 299 299 300 300 299 299 299 299 299 300 300 301 302 303 303 303 303 303 303 303 304 305 305 305 304 304 303 302 301 301 300 299 298 297 296 295 293 292 291 290 289 288 286 284 283 281 279 276 273 271 268 264 261 258 256 252 249 247 244 241 238 236 233 231 229 227 225
291 291 291 291 292 292 292 293 294 294 295 295 296 296 296 297 297 298 299 299 300 300 300 300 300 300 300 300 300 301 301 302 303 304 304 304 304 303 304 305 306 306 306 305 304 303 302 301 301 300 299 298 297 296 295 293 291 290 290 289 287 286 284 282 280 278 275 273 269 266 263 260 257 253 250 247 244 241 238 235 233 231 228 226 225 223
290 291 291 291 291 292 292 293 293 294 294 295 295 296 296 297 297 298 299 300 300 300 301 300 300 300 300 300 301 301 302 302 303 304 305 305 304 304 305 306 307 307 307 306 305 304 303 302 301 300 300 299 298 297 295 293 292 291 290 289 287 286 284 282 280 277 274 271 268 265 261 258 255 251 248 245 241 238 235 233 230 228 226 224 222 220
290 290 290 290 291 291 292 292 293 294 294 295 295 296 296 297 297 298 299 300 300 301 301 301 300 300 300 301 301 302 302 303 304 305 306 305 305 305 306 307 308 308 308 307 306 304 303 302 301 301 300 299 299 298 296 294 292 291 290 289 287 285 283 281 279 276 273 270 267 263 259 256 252 249 245 242 239 235 233 230 228 226 223 222 220 218
290 290 290 290 291 291 292 292 293 293 294 295 295 296 296 297 298 298 299 300 300 301 301 301 300 300 301 301 302 302 303 304 305 306 307 306 306 306 307 308 309 310 309 308 307 305 304 302 302 301 301 300 300 298 297 295 293 292 291 289 287 285 283 280 278 275 272 268 265 261 257 253 250 246 243 239 236 233 230 228 225 223 221 219 217 216
289 289 290 290 291 291 292 293 293 294 294 295 295 296 297 297 298 298 299 300 301 301 301 301 301 301 301 302 302 303 304 305 306 306 307 307 307 307 308 309 310 310 310 309 307 306 304 303 303 302 302 302 301 300 298 296 294 293 291 289 287 284 282 280 277 274 270 266 263 258 254 250 247 243 239 236 233 230 227 225 223 221 219 217 215 213
288 289 289 290 291 291 292 292 293 294 294 295 295 296 297 297 298 298 299 301 301 301 301 301 301 301 302 302 303 304 304 305 306 307 308 308 308 308 309 310 311 311 311 310 308 307 305 304 304 304 304 303 302 301 299 297 295 293 291 289 286 284 281 279 276 272 268 265 260 256 251 247 243 240 236 233 230 227 224 222 220 218 216 215 213 211
288 288 289 289 290 291 291 292 293 293 294 295 295 296 297 297 298 298 300 301 301 301 301 301 301 301 302 303 304 304 305 305 306 307 308 309 309 309 310 311 312 312 312 311 309 308 306 305 305 305 305 305 304 302 300 298 296 294 292 289 286 283 280 277 274 271 267 262 257 253 248 244 240 237 233 230 227 224 221 219 216 214 213 212 210 209
287 288 288 289 290 290 291 292 292 293 294 294 295 296 297 297 297 298 300 301 301 301 300 300 301 302 302 303 304 304 305 306 307 308 309 309 310 310 311 312 312 312 312 312 310 308 307 306 306 306 306 306 305 303 301 299 296 294 292 289 286 283 279 276 273 269 264 259 254 250 245 241 237 234 231 228 224 221 219 216 213 211 209 208 208 207
287 288 288 289 290 290 291 291 292 293 294 294 295 296 297 297 298 299 300 301 300 300 300 300 301 302 303 304 304 305 305 306 307 309 310 311 311 311 312 313 313 313 313 312 311 309 308 308 308 308 308 307 306 304 302 299 297 294 292 289 285 282 278 275 271 267 262 257 251 246 242 238 235 232 228 225 222 219 216 213 211 209 207 205 204 204
288 288 289 289 290 290 291 292 292 293 294 294 295 296 296 297 298 299 300 300 300 300 300 301 301 302 303 304 305 305 306 307 308 309 311 311 312 312 313 314 314 313 313 312 312 311 309 309 309 309 309 308 307 305 302 300 297 294 291 288 284 281 277 273 269 264 259 254 248 243 239 236 232 229 226 223 219 216 213 211 208 206 205 203 202 201
288 288 289 289 290 290 291 292 292 293 294 294 295 296 296 297 298 299 300 300 300 300 300 301 302 303 304 305 305 306 307 308 309 310 311 312 313 313 314 314 314 314 313 312 311 311 310 310 310 310 310 309 307 305 303 300 297 294 290 287 283 280 276 272 267 262 256 250 245 241 236 233 230 227 224 220 217 213 210 208 206 204 202 201 200 199
288 289 289 289 290 291 291 292 293 293 294 294 295 296 297 298 299 300 300 300 300 300 301 301 302 303 304 305 306 306 307 308 309 311 312 313 313 314 314 315 315 314 314 312 311 310 310 310 310 310 310 309 307 305 303 300 297 293 290 286 282 278 274 270 265 259 253 248 242 238 234 230 227 225 221 218 214 211 208 205 203 201 200 199 198 197
288 289 289 289 290 291 291 292 293 293 294 294 295 296 297 298 299 300 300 300 300 300 301 302 303 304 305 306 307 307 308 309 310 311 312 313 314 315 315 315 315 315 314 313 312 311 310 310 310 310 310 308 307 305 302 299 296 292 289 285 281 277 273 268 262 256 250 245 239 234 231 228 225 222 219 215 212 208 205 203 200 199 198 197 197 196
289 289 289 290 290 291 292 292 292 293 294 294 295 296 298 299 299 299 300 300 300 301 302 303 304 305 306 307 307 308 309 310 311 312 313 314 315 315 316 315 315 315 314 313 312 311 311 311 311 310 309 308 306 304 302 299 295 291 287 283 279 275 271 266 260 253 247 241 236 231 228 225 223 220 217 213 210 206 203 201 198 197 197 196 196 195
288 289 289 290 290 291 292 292 292 293 294 295 296 297 298 299 299 299 300 300 301 301 302 303 304 305 306 307 308 308 309 310 312 312 314 315 315 316 316 316 315 315 315 313 312 312 311 311 311 310 309 308 306 304 301 298 294 290 285 281 278 274 269 263 257 251 244 238 233 228 225 222 220 218 215 211 208 204 201 199 197 196 195 195 195 194
288 289 289 290 291 291 292 292 292 293 294 295 296 298 299 299 299 299 300 300 301 302 303 304 305 306 306 307 308 308 310 311 312 313 314 315 316 316 316 316 315 315 315 314 313 312 311 311 311 310 309 307 306 303 300 297 293 288 284 280 276 271 267 261 254 248 241 235 229 224 222 219 218 215 212 209 206 202 199 197 196 195 195 194 193 193
288 289 290 290 291 291 292 292 293 293 294 296 297 298 299 299 299 300 300 301 301 302 303 305 306 306 307 307 308 309 310 311 312 313 314 315 316 316 316 316 315 315 315 314 313 312 311 311 310 310 308 307 305 303 300 296 291 286 282 278 274 270 264 258 251 245 238 231 225 221 218 216 215 213 210 207 204 201 198 196 195 194 194 193 193 192
288 289 290 290 291 291 292 292 293 294 295 296 297 298 299 299 299 300 300 301 302 303 304 305 306 307 307 307 308 309 310 311 313 314 315 315 316 316 316 316 316 315 315 314 313 312 311 311 310 309 308 306 304 302 299 294 290 285 280 276 272 267 262 255 249 242 235 228 222 217 215 213 212 210 208 205 203 200 197 196 194 194 193 192 192 191
289 289 290 290 291 291 291 292 293 294 296 297 298 298 298 299 299 300 300 301 302 303 304 305 306 307 307 308 308 309 311 312 313 314 315 316 316 316 316 316 315 315 315 314 313 312 311 310 309 309 307 306 304 301 298 293 288 283 278 274 270 265 259 253 246 239 232 225 218 214 211 210 208 207 205 203 201 199 197 195 194 193 192 192 191 190
289 289 290 290 290 291 291 292 294 295 296 297 297 298 298 298 299 300 300 301 302 303 305 306 307 307 307 308 309 310 311 312 313 314 315 316 316 316 316 316 315 315 315 314 313 312 311 310 309 308 306 305 303 300 296 291 286 280 276 272 268 262 256 250 244 237 229 222 216 211 208 206 205 204 203 201 200 198 196 195 193 193 192 191 190 189
289 289 289 290 290 291 292 293 294 295 296 297 297 297 298 299 299 300 300 301 303 304 305 306 307 308 308 309 309 310 311 313 314 314 315 316 316 316 316 316 315 315 315 314 313 312 311 309 308 307 306 304 302 299 294 289 283 278 274 270 265 260 253 248 241 234 226 220 213 209 205 204 202 201 200 199 198 196 195 194 193 192 191 190 189 188
289 289 289 290 290 291 292 293 294 295 296 296 297 297 298 299 299 300 301 302 303 304 306 307 307 308 309 309 310 311 312 313 314 315 315 316 316 316 316 315 315 315 315 314 313 312 311 309 308 306 305 303 301 297 292 286 280 276 271 267 262 257 251 245 238 231 224 217 211 207 203 201 200 199 198 197 196 195 194 193 192 191 190 189 188 187
289 289 289 290 291 292 293 294 295 296 296 296 297 297 298 299 299 300 301 302 303 305 306 307 308 308 309 310 311 312 313 313 314 315 315 316 316 316 316 316 315 315 315 314 314 312 310 308 307 306 304 302 299 295 290 283 278 273 269 264 259 253 248 242 236 228 221 214 209 205 202 200 198 197 196 195 194 193 192 192 191 190 189 188 187 186
288 289 289 290 291 292 293 294 295 296 296 296 297 297 298 299 299 300 301 302 304 305 306 307 308 309 309 310 311 312 313 314 315 315 315 316 316 316 316 316 315 315 315 314 313 312 310 308 307 305 303 301 298 293 287 280 274 270 266 261 255 249 244 239 233 226 218 212 207 203 200 198 197 195 194 193 192 192 191 190 189 189 188 187 186 185
288 289 290 291 292 293 293 294 295 295 296 296 297 297 298 298 299 300 301 303 304 305 307 307 308 309 310 311 312 313 314 314 315 315 316 316 316 316 316 316 316 315 315 314 313 311 309 307 306 304 302 300 296 290 283 277 271 266 262 257 251 245 240 236 231 224 216 209 205 201 199 197 195 194 193 192 191 190 189 189 188 187 186 186 185 184
288 289 290 291 292 293 293 294 294 295 295 296 296 297 297 298 299 300 302 303 305 306 307 307 308 309 310 311 312 313 314 314 315 316 316 316 317 317 316 316 315 315 315 314 312 311 309 307 305 303 300 298 294 287 280 273 267 263 259 254 247 241 236 232 228 221 214 207 203 200 197 195 194 192 191 190 189 189 188 187 186 186 185 184 184 183
288 289 290 291 292 293 293 294 294 295 295 296 296 297 297 298 300 301 302 304 305 306 307 308 308 309 310 311 312 313 314 314 315 315 316 317 317 317 316 316 316 315 314 313 312 310 308 306 303 301 299 296 291 284 276 269 264 260 255 250 242 235 231 229 225 219 211 206 201 198 196 194 192 191 189 189 188 187 186 185 185 184 184 183 182 182
289 290 291 291 292 292 293 294 294 295 295 296 296 297 298 299 300 302 303 304 306 306 307 308 309 310 310 311 312 313 313 314 314 315 316 317 317 317 317 316 316 315 314 313 311 309 307 305 302 300 297 293 288 281 271 264 259 255 251 245 238 230 226 224 222 217 210 204 200 197 194 192 191 189 188 187 186 185 185 184 183 182 182 181 181 180
289 290 291 291 292 292 293 294 294 295 295 295 296 297 298 299 301 302 304 305 306 307 307 308 309 310 311 312 312 313 313 314 314 315 316 317 317 317 317 316 316 315 314 313 311 309 306 303 300 297 294 290 285 278 268 260 255 251 247 242 233 225 221 220 219 215 209 203 198 195 193 191 189 188 187 185 184 184 183 182 181 181 180 180 179 179
290 290 291 291 292 293 293 294 294 295 295 296 296 297 298 300 301 303 304 305 306 307 307 308 309 310 311 312 312 313 313 313 314 315 316 317 317 317 316 316 315 315 314 312 310 308 306 302 299 294 290 286 281 274 265 256 250 247 244 238 229 220 215 216 216 213 208 202 197 194 192 190 188 186 185 184 183 182 181 180 179 179 178 178 177 177
Height
10321 10318 10315 10314 10312 10309 10306 10304 10302 10300 10299 10297 10295 10292 10291 10289 10287 10284 10282 10279 10277 10274 10272 10269 10267 10264 10262 10260 10257 10255 10253 10251 10249 10247 10245 10242 10240 10238 10235 10233 10230 10228 10225 10223 10220 10218 10215 10213 10210 10208 10205 10203 10200 10198 10195 10193 10190 10187 10185 10182 10180 10178 10176 10174 10172 10170 10167 10166 10164 10162 10160 10159 10158 10159 10160 10162 10162 10162 10162 10161 10161 10162 10164 10165 10168 10170
10314 10312 10309 10307 10305 10303 10299 10297 10296 10295 10292 10290 10288 10286 10284 10282 10279 10277 10274 10272 10269 10267 10264 10262 10259 10257 10254 10252 10250 10247 10245 10243 10241 10239 10236 10234 10231 10229 10226 10224 10221 10218 10215 10213 10210 10207 10205 10202 10200 10197 10195 10192 10189 10186 10184 10180 10178 10175 10172 10170 10168 10165 10164 10162 10160 10157 10155 10153 10150 10149 10147 10145 10145 10147 10148 10148 10148 10147 10147 10146 10146 10147 10149 10150 10153 10155
10307 10305 10302 10301 10299 10296 10293 10290 10289 10288 10286 10284 10281 10279 10277 10274 10272 10269 10267 10264 10262 10259 10257 10254 10252 10250 10247 10245 10242 10240 10237 10235 10233 10230 10227 10225 10222 10219 10217 10214 10211 10209 10205 10203 10200 10197 10195 10192 10189 10187 10184 10181 10178 10175 10172 10169 10166 10163 10160 10158 10156 10154 10152 10150 10147 10145 10142 10140 10137 10135 10134 10134 10134 10135 10135 10134 10134 10133 10132 10132 10132 10132 10134 10135 10138 10141
10302 10299 10296 10294 10292 10289 10287 10284 10282 10280 10279 10277 10275 10272 10270 10267 10265 10262 10259 10257 10254 10252 10249 10247 10245 10242 10240 10237 10235 10232 10230 10227 10225 10222 10219 10216 10213 10210 10207 10204 10201 10199 10195 10192 10190 10187 10184 10182 10179 10175 10172 10169 10166 10163 10160 10157 10154 10151 10149 10146 10144 10142 10140 10138 10135 10132 10129 10127 10124 10122 10120 10120 10121 10122 10121 10120 10120 10119 10119 10119 10119 10119 10120 10122 10124 10127
10295 10293 10290 10288 10285 10282 10280 10277 10275 10274 10272 10270 10268 10266 10264 10260 10258 10255 10252 10249 10247 10244 10242 10239 10237 10235 10232 10230 10227 10225 10222 10220 10217 10214 10210 10207 10204 10201 10198 10195 10192 10189 10185 10183 10180 10177 10174 10171 10168 10165 10161 10158 10154 10151 10148 10144 10142 10139 10136 10134 10132 10130 10127 10124 10121 10118 10115 10113 10110 10109 10108 10108 10109 10109 10109 10107 10107 10106 10106 10105 10105 10106 10107 10109 10111 10114
10289 10287 10284 10282 10279 10276 10273 10270 10269 10267 10265 10264 10262 10259 10257 10254 10251 10248 10245 10242 10240 10237 10235 10232 10230 10227 10225 10222 10220 10218 10215 10212 10209 10206 10202 10199 10195 10192 10189 10185 10182 10179 10176 10173 10170 10167 10164 10160 10157 10153 10149 10146 10142 10139 10135 10132 10129 10127 10124 10122 10119 10116 10114 10110 10107 10105 10102 10100 10098 10097 10096 10096 10097 10097 10096 10095 10094 10094 10094 10093 10094 10094 10095 10097 10099 10102
10282 10280 10278 10275 10273 10270 10267 10264 10262 10260 10259 10257 10255 10252 10250 10247 10244 10241 10239 10235 10233 10230 10228 10225 10223 10220 10217 10215 10213 10210 10208 10205 10202 10199 10195 10191 10187 10184 10180 10177 10174 10170 10167 10164 10160 10157 10153 10149 10145 10142 10138 10134 10130 10127 10123 10120 10117 10114 10112 10109 10106 10104 10100 10097 10095 10092 10090 10087 10086 10085 10084 10085 10085 10085 10085 10084 10083 10082 10082 10082 10082 10084 10085 10086 10089 10092
10276 10273 10271 10269 10266 10263 10260 10257 10255 10254 10252 10251 10249 10245 10242 10240 10237 10235 10232 10229 10226 10224 10221 10219 10215 10213 10210 10207 10205 10203 10201 10198 10195 10191 10187 10183 10179 10175 10172 10168 10165 10161 10157 10154 10150 10146 10142 10138 10134 10130 10127 10123 10119 10115 10111 10108 10105 10102 10100 10097 10094 10091 10089 10086 10084 10080 10078 10076 10075 10074 10074 10074 10074 10074 10074 10073 10072 10072 10071 10072 10072 10074 10075 10077 10079 10082
10270 10267 10264 10262 10260 10257 10254 10250 10248 10247 10246 10245 10242 10240 10236 10233 10230 10227 10225 10222 10219 10217 10215 10212 10209 10205 10202 10200 10198 10196 10194 10191 10188 10184 10179 10175 10170 10167 10164 10160 10157 10153 10149 10145 10140 10136 10132 10128 10124 10120 10116 10112 10108 10104 10100 10097 10094 10091 10088 10085 10082 10079 10077 10075 10073 10070 10068 10065 10064 10064 10063 10063 10064 10064 10064 10063 10062 10062 10062 10062 10064 10064 10066 10069 10071 10075
10265 10262 10259 10256 10254 10251 10248 10244 10241 10240 10239 10238 10236 10234 10230 10227 10224 10221 10218 10215 10212 10210 10208 10205 10202 10199 10195 10192 10190 10189 10187 10184 10180 10177 10172 10167 10162 10159 10155 10152 10149 10145 10141 10137 10132 10127 10122 10119 10115 10110 10106 10102 10097 10093 10089 10086 10083 10080 10077 10074 10070 10069 10067 10065 10062 10060 10058 10056 10055 10054 10053 10054 10054 10054 10054 10054 10053 10053 10053 10054 10055 10056 10058 10060 10064 10067
10258 10255 10253 10250 10247 10244 10242 10238 10235 10233 10232 10231 10229 10227 10224 10222 10219 10216 10212 10209 10205 10203 10201 10199 10196 10193 10189 10185 10183 10182 10180 10177 10173 10169 10164 10159 10155 10150 10147 10144 10141 10137 10133 10128 10123 10118 10114 10109 10105 10101 10096 10092 10087 10083 10079 10076 10073 10069 10066 10063 10060 10058 10056 10055 10053 10051 10049 10047 10045 10045 10044 10044 10044 10045 10045 10045 10045 10045 10045 10046 10047 10049 10050 10053 10056 10059
10252 10249 10247 10244 10240 10237 10234 10231 10229 10227 10226 10224 10222 10219 10217 10215 10213 10211 10207 10203 10200 10197 10194 10191 10189 10185 10182 10179 10176 10174 10173 10170 10166 10162 10157 10151 10147 10142 10139 10137 10134 10129 10125 10120 10115 10110 10105 10101 10097 10092 10087 10082 10077 10074 10070 10067 10063 10060 10056 10053 10050 10048 10047 10045 10044 10042 10040 10039 10037 10036 10036 10035 10035 10036 10036 10036 10037 10037 10037 10038 10039 10041 10043 10046 10050 10053
10245 10244 10241 10238 10234 10231 10227 10225 10223 10221 10219 10218 10215 10213 10210 10207 10206 10204 10201 10198 10194 10192 10189 10185 10182 10178 10175 10172 10170 10168 10166 10164 10160 10155 10150 10144 10139 10134 10132 10129 10126 10122 10117 10112 10106 10102 10097 10094 10089 10084 10078 10074 10069 10065 10062 10058 10054 10050 10047 10044 10042 10039 10037 10036 10035 10034 10032 10030 10029 10029 10028 10027 10027 10027 10028 10029 10029 10029 10030 10031 10033 10035 10037 10040 10044 10047
10239 10237 10234 10231 10228 10224 10221 10219 10217 10215 10213 10211 10209 10207 10204 10201 10199 10197 10194 10191 10189 10186 10184 10180 10176 10172 10168 10164 10162 10161 10160 10157 10154 10149 10144 10137 10131 10127 10125 10122 10119 10115 10110 10104 10099 10094 10090 10086 10080 10075 10070 10065 10061 10057 10054 10050 10046 10042 10039 10035 10033 10031 10029 10028 10027 10025 10024 10023 10022 10021 10020 10020 10020 10020 10020 10021 10022 10022 10024 10025 10027 10029 10032 10035 10038 10040
10232 10230 10228 10225 10221 10218 10215 10212 10210 10209 10206 10204 10202 10200 10198 10195 10192 10190 10188 10185 10182 10180 10177 10174 10170 10166 10162 10158 10155 10154 10153 10151 10149 10144 10137 10130 10124 10120 10118 10115 10112 10107 10102 10097 10092 10087 10083 10078 10073 10067 10062 10058 10054 10049 10045 10042 10038 10034 10031 10028 10025 10023 10022 10020 10019 10018 10017 10015 10015 10014 10014 10013 10013 10013 10013 10014 10015 10016 10019 10019 10021 10024 10026 10029 10031 10033
10225 10224 10221 10218 10214 10211 10208 10206 10204 10202 10200 10198 10196 10194 10191 10188 10185 10183 10181 10179 10176 10174 10171 10168 10164 10160 10155 10151 10149 10147 10146 10144 10142 10137 10131 10124 10116 10112 10110 10109 10105 10100 10094 10089 10084 10079 10075 10070 10065 10060 10055 10050 10046 10042 10038 10034 10030 10027 10024 10020 10018 10016 10014 10013 10012 10010 10010 10009 10008 10007 10007 10006 10006 10006 10007 10007 10008 10010 10012 10013 10015 10017 10020 10022 10024 10026
10219 10217 10214 10211 10208 10204 10202 10200 10198 10195 10194 10191 10189 10187 10185 10182 10179 10176 10174 10172 10169 10167 10164 10162 10159 10154 10149 10144 10141 10140 10139 10137 10134 10130 10125 10117 10109 10104 10103 10102 10099 10092 10086 10080 10076 10072 10067 10062 10057 10052 10047 10043 10039 10035 10030 10027 10023 10019 10016 10014 10011 10009 10007 10006 10005 10004 10003 10002 10001 10000 10000 10000 10000 10000 10000 10001 10002 10003 10004 10006 10008 10010 10014 10015 10017 10020
10212 10210 10207 10205 10201 10198 10195 10193 10191 10189 10187 10185 10183 10180 10178 10175 10172 10170 10167 10165 10163 10160 10157 10155 10152 10149 10145 10139 10135 10132 10132 10130 10127 10124 10119 10111 10103 10098 10096 10094 10091 10085 10079 10073 10068 10064 10059 10054 10049 10045 10040 10036 10032 10028 10024 10019 10015 10012 10009 10007 10005 10002 10001 9999 9999 9997 9997 9995 9995 9994 9994 9993 9993 9994 9994 9995 9995 9997 9998 9999 10001 10004 10007 10009 10010 10013
10205 10203 10201 10198 10194 10192 10189 10187 10184 10182 10180 10179 10177 10174 10170 10168 10165 10163 10160 10159 10157 10154 10151 10148 10144 10141 10138 10134 10129 10126 10125 10124 10121 10117 10112 10105 10097 10091 10089 10087 10084 10078 10071 10065 10060 10055 10051 10047 10042 10038 10034 10030 10025 10021 10017 10013 10009 10005 10003 10000 9999 9997 9995 9994 9992 9992 9990 9990 9989 9988 9988 9987 9987 9987 9989 9989 9990 9991 9992 9994 9995 9997 9999 10001 10004 10007
10198 10196 10194 10191 10188 10185 10182 10180 10178 10176 10175 10172 10170 10168 10164 10161 10159 10156 10154 10152 10150 10147 10145 10142 10138 10134 10130 10127 10123 10120 10119 10117 10115 10111 10106 10099 10090 10085 10082 10080 10077 10070 10064 10057 10052 10048 10044 10039 10035 10031 10027 10023 10019 10015 10011 10007 10003 10000 9997 9995 9992 9990 9989 9988 9987 9985 9985 9984 9984 9983 9982 9982 9982 9982 9982 9983 9984 9985 9986 9988 9989 9991 9994 9995 9999 10002
10191 10189 10186 10185 10182 10179 10175 10173 10171 10170 10169 10167 10164 10161 10159 10155 10152 10150 10147 10145 10143 10140 10138 10135 10131 10127 10124 10120 10116 10113 10112 10110 10109 10105 10100 10093 10085 10079 10075 10074 10070 10064 10057 10050 10044 10040 10036 10032 10028 10024 10020 10017 10013 10009 10005 10000 9997 9994 9992 9989 9987 9985 9984 9982 9981 9980 9979 9979 9978 9977 9977 9977 9977 9977 9977 9978 9979 9980 9981 9983 9985 9987 9989 9990 9994 9997
10185 10182 10179 10177 10175 10173 10170 10167 10165 10164 10162 10160 10158 10155 10152 10150 10147 10144 10141 10139 10137 10134 10131 10128 10124 10120 10117 10113 10109 10107 10105 10104 10102 10099 10094 10087 10079 10072 10069 10067 10064 10057 10050 10043 10037 10032 10028 10024 10021 10018 10014 10010 10007 10003 9999 9995 9991 9989 9987 9984 9982 9980 9979 9977 9976 9975 9974 9974 9973 9972 9972 9972 9972 9972 9972 9973 9974 9975 9977 9978 9980 9981 9983 9985 9988 9992
10179 10175 10172 10170 10168 10166 10164 10162 10159 10157 10155 10154 10152 10149 10146 10144 10141 10138 10135 10132 10130 10127 10124 10121 10117 10114 10110 10107 10103 10100 10099 10097 10095 10093 10089 10081 10073 10067 10063 10061 10057 10050 10044 10037 10030 10025 10021 10017 10014 10012 10008 10004 10000 9997 9992 9989 9986 9984 9982 9979 9977 9975 9974 9972 9971 9970 9970 9969 9969 9968 9967 9967 9967 9967 9967 9968 9969 9970 9970 9972 9974 9976 9979 9980 9984 9987
10171 10169 10165 10163 10161 10159 10158 10155 10154 10151 10149 10147 10145 10143 10140 10138 10135 10132 10129 10127 10124 10122 10119 10115 10112 10107 10104 10100 10097 10094 10091 10090 10089 10085 10081 10075 10068 10062 10057 10055 10050 10044 10037 10030 10024 10019 10014 10011 10009 10005 10002 9999 9995 9990 9987 9984 9980 9979 9977 9975 9972 9970 9969 9967 9967 9965 9965 9965 9964 9964 9964 9963 9963 9963 9963 9964 9964 9965 9966 9967 9969 9972 9975 9979 9982 9985
10164 10162 10159 10155 10154 10152 10151 10149 10147 10145 10143 10140 10139 10136 10134 10132 10129 10126 10124 10121 10119 10116 10113 10110 10106 10102 10097 10094 10090 10086 10084 10082 10081 10079 10074 10069 10062 10056 10052 10049 10045 10039 10031 10024 10017 10012 10008 10005 10002 10000 9996 9992 9989 9985 9982 9979 9975 9974 9972 9970 9968 9966 9964 9963 9962 9962 9961 9961 9960 9960 9959 9959 9959 9959 9959 9960 9960 9962 9962 9964 9966 9969 9973 9977 9980 9984
10158 10155 10152 10149 10147 10145 10144 10142 10140 10139 10136 10134 10132 10130 10127 10125 10122 10120 10117 10115 10112 10110 10108 10104 10100 10096 10092 10089 10084 10080 10077 10075 10074 10072 10068 10062 10056 10050 10045 10042 10039 10034 10026 10019 10012 10006 10001 9999 9997 9994 9990 9987 9984 9980 9977 9974 9971 9969 9967 9965 9963 9962 9960 9959 9958 9958 9957 9957 9957 9956 9955 9955 9955 9955 9955 9956 9957 9959 9960 9963 9965 9969 9972 9975 9979 9981
10153 10150 10147 10144 10142 10139 10137 10135 10134 10132 10130 10127 10125 10124 10122 10119 10117 10114 10110 10109 10107 10105 10102 10099 10094 10090 10087 10083 10079 10074 10070 10069 10067 10065 10062 10057 10050 10044 10039 10036 10032 10027 10021 10014 10007 10000 9995 9992 9990 9989 9985 9982 9978 9975 9972 9969 9967 9964 9962 9961 9959 9957 9956 9955 9955 9954 9954 9954 9953 9952 9952 9951 9951 9951 9952 9953 9954 9955 9958 9961 9964 9967 9970 9974 9976 9979
10147 10145 10142 10139 10137 10134 10132 10130 10128 10126 10124 10122 10120 10118 10116 10114 10112 10108 10105 10103 10101 10099 10095 10092 10089 10085 10082 10078 10073 10069 10065 10062 10060 10059 10055 10050 10044 10039 10034 10030 10026 10022 10016 10010 10002 9996 9990 9987 9985 9983 9980 9977 9974 9970 9967 9965 9962 9960 9959 9957 9955 9954 9953 9952 9952 9951 9950 9950 9949 9949 9948 9948 9948 9948 9949 9950 9951 9953 9955 9958 9961 9964 9967 9970 9974 9977
10140 10138 10136 10134 10131 10129 10127 10125 10123 10120 10118 10116 10114 10112 10110 10109 10107 10104 10100 10099 10096 10093 10090 10087 10084 10081 10077 10074 10069 10064 10059 10057 10055 10053 10050 10044 10038 10033 10028 10024 10020 10015 10011 10005 9999 9992 9986 9982 9979 9977 9975 9972 9969 9966 9964 9961 9959 9956 9954 9953 9951 9950 9949 9949 9949 9948 9947 9947 9946 9945 9945 9945 9945 9945 9946 9947 9949 9951 9954 9956 9959 9961 9964 9967 9970 9974
10133 10131 10129 10127 10125 10123 10121 10119 10117 10115 10112 10110 10108 10106 10104 10104 10102 10099 10096 10094 10090 10087 10084 10081 10079 10075 10072 10069 10064 10059 10054 10050 10049 10047 10044 10039 10032 10027 10022 10017 10014 10010 10005 10000 9994 9988 9982 9978 9974 9972 9970 9968 9965 9963 9960 9957 9955 9953 9950 9949 9948 9947 9946 9946 9945 9945 9945 9944 9943 9943 9942 9942 9943 9943 9944 9945 9948 9950 9953 9955 9957 9960 9962 9965 9968 9971
10126 10124 10122 10120 10119 10117 10115 10113 10111 10109 10107 10105 10102 10100 10099 10097 10095 10093 10090 10087 10085 10082 10079 10076 10073 10070 10067 10064 10059 10054 10049 10045 10042 10041 10038 10033 10027 10022 10017 10012 10007 10003 10000 9995 9990 9984 9979 9974 9971 9968 9965 9963 9961 9959 9957 9954 9952 9949 9947 9945 9944 9944 9944 9943 9943 9942 9942 9941 9940 9940 9940 9940 9940 9942 9942 9944 9947 9949 9952 9954 9957 9959 9962 9964 9967 9969
10119 10118 10116 10114 10112 10110 10109 10107 10105 10103 10100 10099 10097 10095 10093 10091 10089 10087 10084 10082 10079 10076 10074 10070 10067 10065 10062 10058 10054 10049 10044 10040 10037 10035 10032 10027 10022 10017 10012 10007 10002 9998 9994 9990 9985 9981 9976 9971 9967 9965 9962 9959 9957 9955 9954 9951 9949 9946 9944 9942 9942 9941 9941 9940 9940 9940 9939 9939 9939 9939 9939 9939 9939 9940 9942 9944 9946 9948 9951 9954 9956 9959 9961 9963 9965 9968
10113 10112 10110 10108 10106 10104 10102 10101 10099 10097 10095 10092 10090 10089 10087 10085 10083 10080 10078 10075 10073 10070 10068 10065 10062 10059 10055 10052 10049 10044 10040 10036 10032 10030 10027 10022 10017 10012 10007 10002 9997 9993 9989 9984 9980 9976 9972 9969 9965 9962 9959 9957 9954 9952 9950 9948 9945 9943 9941 9940 9939 9939 9939 9938 9938 9937 9937 9936 9937 9937 9937 9937 9938 9939 9940 9942 9945 9947 9950 9953 9955 9958 9960 9962 9964 9965
10107 10105 10104 10102 10100 10098 10097 10095 10093 10091 10089 10087 10085 10083 10081 10079 10077 10075 10072 10069 10067 10064 10062 10059 10057 10053 10050 10046 10042 10039 10034 10030 10027 10025 10021 10017 10012 10007 10002 9997 9992 9988 9984 9980 9975 9971 9968 9965 9962 9959 9956 9954 9952 9949 9947 9945 9943 9940 9939 9937 9936 9936 9936 9936 9935 9935 9934 9934 9935 9935 9936 9936 9937 9937 9939 9942 9944 9947 9949 9952 9955 9957 9959 9960 9962 9964
10100 10099 10097 10095 10094 10092 10090 10089 10087 10085 10083 10081 10079 10077 10075 10073 10071 10069 10066 10063 10060 10058 10056 10054 10051 10048 10045 10041 10037 10033 10029 10025 10022 10019 10015 10012 10007 10002 9997 9992 9988 9984 9980 9975 9972 9967 9964 9960 9958 9955 9953 9951 9949 9947 9944 9942 9940 9938 9936 9935 9934 9934 9934 9934 9933 9932 9932 9933 9934 9934 9935 9935 9935 9937 9939 9940 9943 9946 9949 9952 9954 9955 9957 9959 9960 9963
10094 10092 10090 10089 10088 10087 10085 10083 10081 10079 10077 10075 10074 10072 10070 10067 10065 10062 10060 10057 10055 10052 10050 10047 10045 10042 10039 10036 10032 10029 10025 10021 10017 10014 10010 10006 10002 9998 9993 9988 9984 9980 9976 9972 9968 9964 9960 9957 9955 9952 9950 9948 9946 9944 9942 9939 9937 9935 9934 9932 9932 9932 9932 9932 9931 9930 9930 9932 9932 9934 9934 9934 9935 9936 9938 9940 9942 9945 9948 9950 9953 9954 9956 9957 9960 9963
10088 10086 10085 10084 10082 10080 10079 10077 10075 10073 10071 10069 10068 10066 10064 10062 10059 10057 10054 10052 10049 10046 10044 10042 10039 10037 10034 10030 10028 10024 10021 10017 10013 10009 10005 10002 9997 9994 9989 9984 9980 9976 9972 9968 9964 9960 9958 9955 9952 9950 9947 9945 9944 9942 9940 9937 9935 9932 9931 9930 9930 9930 9930 9930 9929 9929 9929 9930 9932 9932 9933 9934 9934 9935 9937 9940 9942 9945 9947 9949 9952 9953 9955 9957 9959 9962
10082 10080 10079 10077 10076 10075 10073 10071 10069 10067 10065 10064 10062 10060 10058 10056 10054 10051 10049 10045 10043 10041 10039 10036 10034 10030 10027 10025 10022 10019 10017 10013 10009 10005 10001 9997 9993 9989 9984 9980 9975 9972 9968 9964 9960 9957 9955 9952 9949 9947 9945 9943 9941 9939 9937 9935 9932 9930 9929 9928 9928 9929 9929 9928 9927 9927 9928 9929 9930 9932 9933 9934 9934 9935 9937 9939 9941 9944 9946 9948 9950 9952 9954 9956 9959 9962
10077 10075 10074 10072 10070 10069 10067 10065 10063 10062 10060 10059 10057 10055 10052 10050 10048 10045 10043 10040 10038 10035 10034 10031 10028 10025 10022 10019 10016 10014 10012 10009 10005 10001 9997 9994 9989 9985 9980 9976 9972 9968 9964 9960 9957 9954 9951 9949 9947 9944 9942 9940 9939 9937 9935 9933 9930 9928 9927 9926 9927 9927 9927 9926 9925 9925 9927 9929 9930 9931 9932 9933 9934 9935 9937 9939 9940 9943 9945 9947 9949 9950 9953 9955 9959 9963
10071 10070 10068 10067 10065 10064 10062 10060 10058 10056 10055 10053 10051 10049 10047 10045 10043 10040 10038 10035 10033 10031 10029 10026 10024 10020 10017 10014 10011 10009 10006 10004 10000 9997 9993 9989 9985 9981 9977 9972 9969 9964 9960 9957 9954 9950 9948 9946 9944 9942 9940 9939 9937 9935 9933 9930 9929 9926 9925 9924 9925 9925 9925 9924 9924 9924 9925 9927 9929 9930 9932 9933 9934 9935 9937 9939 9940 9943 9945 9947 9949 9950 9953 9955 9959 9963
10066 10064 10063 10062 10060 10058 10057 10055 10053 10051 10050 10048 10046 10044 10042 10040 10037 10035 10033 10030 10028 10026 10024 10022 10019 10015 10012 10009 10005 10003 10001 9998 9995 9992 9989 9985 9981 9977 9973 9969 9965 9961 9957 9954 9950 9947 9945 9942 9941 9939 9938 9936 9935 9933 9930 9929 9926 9924 9924 9923 9923 9924 9923 9922 9922 9923 9924 9926 9927 9929 9931 9933 9934 9935 9937 9939 9940 9943 9945 9947 9949 9950 9954 9957 9960 9964
10060 10059 10057 10056 10055 10053 10051 10050 10048 10047 10045 10043 10041 10039 10037 10035 10033 10030 10028 10025 10023 10021 10019 10017 10014 10010 10006 10003 10000 9998 9995 9993 9990 9987 9984 9980 9977 9973 9969 9965 9961 9957 9954 9950 9947 9944 9942 9939 9938 9937 9935 9934 9932 9930 9929 9927 9924 9923 9922 9921 9922 9922 9922 9921 9920 9922 9923 9925 9926 9929 9930 9932 9934 9935 9937 9939 9940 9943 9945 9947 9949 9951 9954 9957 9962 9966
10055 10054 10052 10051 10049 10048 10047 10045 10044 10042 10040 10038 10035 10034 10032 10030 10028 10025 10023 10020 10018 10016 10014 10012 10009 10005 10002 9998 9995 9992 9990 9987 9985 9982 9979 9976 9973 9969 9965 9960 9957 9954 9950 9947 9944 9941 9939 9937 9935 9934 9933 9932 9930 9929 9927 9925 9922 9921 9920 9920 9920 9920 9920 9919 9919 9920 9922 9924 9925 9927 9929 9932 9934 9936 9937 9939 9941 9943 9945 9947 9950 9952 9955 9959 9962 9967
10050 10049 10047 10045 10044 10043 10042 10040 10039 10037 10035 10032 10030 10028 10027 10025 10023 10021 10019 10016 10014 10012 10009 10007 10004 10001 9998 9994 9991 9987 9984 9982 9979 9976 9974 9971 9968 9965 9960 9957 9953 9950 9947 9944 9941 9939 9936 9934 9932 9931 9930 9930 9929 9927 9925 9923 9921 9919 9919 9919 9919 9919 9919 9918 9918 9919 9920 9922 9924 9926 9929 9931 9934 9935 9937 9939 9941 9944 9946 9948 9950 9954 9957 9960 9964 9969
10045 10043 10042 10040 10039 10038 10037 10035 10033 10032 10029 10027 10025 10023 10022 10020 10019 10017 10014 10012 10009 10007 10005 10002 10000 9997 9993 9990 9987 9984 9980 9977 9974 9970 9968 9965 9963 9960 9957 9953 9949 9946 9943 9940 9939 9936 9934 9932 9930 9929 9928 9927 9926 9925 9923 9921 9919 9918 9917 9917 9918 9918 9917 9917 9917 9918 9919 9921 9923 9925 9927 9930 9932 9935 9937 9939 9942 9944 9947 9949 9952 9955 9958 9962 9966 9970
10040 10038 10037 10035 10035 10033 10032 10030 10028 10027 10024 10022 10020 10019 10017 10015 10014 10012 10010 10008 10005 10003 10000 9998 9995 9992 9989 9986 9983 9980 9976 9972 9969 9965 9963 9960 9957 9955 9952 9949 9945 9942 9940 9937 9935 9934 9932 9930 9928 9927 9925 9925 9924 9923 9922 9920 9918 9916 9915 9916 9917 9917 9917 9916 9916 9917 9919 9920 9922 9925 9927 9929 9932 9935 9937 9939 9942 9944 9947 9950 9953 9956 9960 9964 9968 9972
10035 10034 10032 10031 10030 10029 10027 10025 10024 10022 10020 10018 10016 10014 10012 10011 10009 10007 10005 10004 10001 9999 9996 9994 9991 9988 9985 9982 9979 9977 9973 9969 9965 9962 9959 9955 9952 9950 9947 9944 9942 9939 9936 9934 9932 9930 9929 9927 9926 9925 9924 9923 9922 9921 9920 9918 9916 9915 9914 9915 9916 9916 9916 9915 9915 9915 9917 9919 9922 9924 9926 9929 9932 9935 9937 9940 9943 9945 9948 9951 9955 9958 9962 9965 9970 9975
10030 10029 10027 10026 10025 10024 10022 10020 10019 10017 10015 10013 10011 10010 10008 10007 10005 10003 10001 9999 9997 9995 9992 9989 9987 9984 9981 9979 9975 9973 9970 9966 9962 9959 9955 9952 9949 9945 9942 9940 9937 9935 9933 9931 9929 9927 9926 9925 9924 9923 9922 9920 9920 9919 9918 9917 9915 9914 9913 9914 9915 9915 9915 9914 9914 9915 9917 9919 9920 9923 9926 9929 9932 9935 9938 9940 9944 9946 9949 9952 9955 9959 9964 9967 9972 9977
10025 10024 10022 10022 10020 10019 10017 10016 10014 10013 10010 10009 10007 10005 10004 10002 10000 9999 9997 9995 9993 9990 9988 9985 9982 9980 9977 9974 9971 9969 9966 9963 9960 9956 9953 9950 9946 9942 9939 9936 9934 9931 9929 9927 9925 9925 9924 9923 9922 9920 9920 9919 9918 9917 9917 9915 9914 9913 9912 9913 9914 9915 9915 9914 9913 9914 9915 9917 9920 9922 9925 9929 9932 9935 9939 9942 9944 9947 9950 9954 9957 9960 9965 9969 9974 9979
10020 10019 10018 10017 10015 10014 10012 10011 10010 10008 10006 10004 10002 10000 9999 9997 9996 9994 9993 9990 9989 9986 9984 9981 9978 9975 9972 9970 9967 9964 9962 9959 9955 9953 9950 9947 9944 9940 9937 9934 9930 9928 9926 9924 9922 9922 9920 9920 9919 9919 9918 9917 9916 9916 9915 9914 9913 9912 9912 9912 9914 9914 9915 9914 9912 9913 9914 9917 9919 9922 9925 9928 9932 9935 9939 9942 9945 9949 9952 9955 9959 9962 9967 9971 9976 9981
10015 10014 10013 10012 10010 10009 10008 10007 10005 10003 10001 9999 9998 9996 9994 9993 9992 9990 9989 9987 9984 9982 9979 9977 9974 9972 9969 9965 9963 9960 9957 9954 9952 9949 9946 9944 9940 9937 9934 9931 9928 9925 9924 9922 9920 9919 9917 9917 9917 9916 9916 9915 9915 9914 9914 9913 9912 9911 9910 9911 9912 9914 9914 9914 9912 9912 9914 9916 9919 9921 9925 9928 9931 9935 9939 9942 9946 9950 9954 9957 9960 9964 9968 9972 9977 9983